Temperature
13 13 13 13 13 13 13 12 12 12 12 12 12 12 12 12 12 12 12 12 12 12 12 12 12 12 11 12 12 12 11 11 12 12 13 13 12 11 11 11 12 13 13
13 13 13 13 12 12 12 12 12 12 12 12 12 12 12 12 12 12 12 12 12 12 12 12 12 12 12 12 12 12 12 12 11 11 11 11 11 11 11 11 11 11 11
13 12 12 12 12 12 12 12 12 12 12 11 11 11 11 11 12 12 12 12 12 12 12 12 12 12 12 12 12 12 12 12 12 12 12 11 11 11 11 11 11 11 11
12 12 12 12 12 12 12 12 11 11 11 11 11 11 11 11 11 11 11 12 12 12 12 12 12 12 12 12 12 12 12 12 13 12 12 12 12 11 11 11 11 11 11
12 12 12 12 12 11 11 11 11 11 10 10 10 10 10 10 11 11 11 11 11 12 12 12 12 12 12 12 12 11 11 11 11 12 12 12 12 11 11 11 11 11 11
12 12 12 12 11 11 11 10 10 10 9 9 8 8 9 10 10 10 10 11 11 11 11 11 11 11 11 11 11 10 10 10 10 10 10 11 11 11 11 11 11 11 11
12 12 12 11 11 10 9 9 8 8 8 7 7 7 8 8 9 9 9 9 9 9 10 10 10 10 11 10 11 11 10 10 10 10 10 10 10 10 10 10 10 11 11
11 11 11 10 10 9 8 8 7 7 7 7 6 6 6 6 7 6 6 7 7 8 8 8 8 8 8 9 9 9 9 9 8 8 8 9 9 8 9 9 9 9 10
11 11 10 9 9 8 7 7 7 7 6 6 5 5 4 5 4 5 5 5 6 6 5 6 6 6 6 6 7 7 7 7 7 7 7 7 7 7 7 8 8 8 9
10 10 10 9 8 8 7 7 6 6 5 5 5 4 4 4 3 3 3 4 4 4 4 4 4 4 4 4 5 5 5 5 4 4 5 5 5 6 6 6 6 7 7
10 9 9 9 8 7 7 6 6 5 5 4 3 3 3 3 2 2 2 2 2 2 2 2 2 2 3 3 3 4 4 3 3 3 3 3 4 4 4 4 4 5 5
9 9 9 8 7 7 6 5 5 5 4 3 3 2 2 1 1 1 1 1 1 1 1 1 1 1 1 1 2 2 2 2 2 2 2 2 2 2 2 3 3 3 3
9 8 8 7 6 6 5 5 4 4 3 2 2 2 1 1 0 0 0 0 0 0 -0 -0 -0 0 0 0 0 0 0 0 0 0 0 1 1 1 1 1 2 2 2
8 7 7 6 5 5 4 4 3 3 2 1 1 1 0 0 -0 -0 -0 -0 -1 -1 -1 -1 -1 -1 -1 -1 -1 -1 -1 -1 -2 -1 -1 -1 -1 -1 -0 -0 0 1 1
7 6 5 5 4 4 3 3 2 2 1 0 0 -0 -1 -1 -1 -1 -1 -1 -1 -2 -2 -2 -2 -3 -3 -3 -3 -3 -3 -3 -3 -3 -2 -2 -2 -2 -2 -1 -1 -1 -0
6 5 4 4 3 3 3 2 2 1 0 -0 -1 -1 -1 -1 -2 -2 -2 -2 -2 -3 -3 -3 -3 -4 -4 -4 -4 -4 -4 -4 -4 -4 -3 -3 -3 -2 -2 -2 -2 -1 -1
4 4 3 3 3 2 2 2 1 -0 -1 -2 -2 -2 -2 -2 -3 -3 -3 -3 -3 -4 -4 -4 -5 -5 -5 -5 -5 -5 -5 -5 -5 -4 -4 -3 -3 -3 -3 -2 -2 -2 -2
3 3 2 2 2 2 1 1 -1 -1 -2 -3 -3 -3 -3 -4 -4 -4 -4 -4 -5 -5 -5 -6 -6 -6 -6 -6 -6 -5 -5 -5 -5 -5 -5 -4 -4 -4 -4 -3 -3 -3 -2
2 2 2 2 2 1 1 -1 -2 -3 -3 -3 -4 -5 -5 -5 -5 -5 -5 -5 -5 -6 -6 -6 -6 -6 -6 -6 -6 -6 -6 -6 -6 -6 -6 -6 -5 -5 -5 -4 -4 -3 -3
2 2 2 1 1 0 -1 -2 -3 -4 -4 -5 -5 -6 -6 -6 -5 -5 -5 -5 -6 -6 -6 -7 -7 -7 -7 -6 -6 -7 -7 -7 -7 -7 -7 -7 -7 -6 -6 -5 -5 -4 -4
1 1 1 1 -0 -2 -3 -3 -4 -4 -5 -6 -6 -6 -6 -6 -6 -5 -5 -6 -6 -6 -7 -7 -7 -7 -7 -7 -7 -8 -8 -8 -8 -8 -8 -8 -8 -7 -7 -6 -6 -5 -4
1 1 0 -1 -2 -3 -4 -4 -5 -5 -6 -6 -7 -7 -7 -6 -6 -6 -6 -6 -6 -7 -7 -7 -7 -8 -8 -8 -8 -8 -8 -9 -8 -8 -8 -8 -8 -8 -7 -7 -6 -5 -5
0 -0 -1 -2 -2 -3 -4 -5 -5 -6 -7 -7 -7 -7 -7 -7 -7 -7 -7 -7 -7 -7 -7 -8 -8 -8 -8 -9 -9 -9 -9 -9 -9 -9 -9 -9 -8 -8 -8 -7 -7 -6 -6
-0 -1 -2 -2 -3 -4 -5 -5 -6 -6 -7 -8 -8 -8 -8 -8 -7 -7 -7 -7 -7 -8 -8 -8 -9 -9 -9 -9 -9 -9 -9 -9 -9 -9 -9 -9 -8 -8 -8 -8 -8 -7 -7
-1 -2 -2 -3 -4 -5 -6 -6 -6 -7 -7 -8 -8 -8 -8 -8 -8 -7 -7 -8 -8 -8 -9 -9 -9 -9 -9 -9 -10 -10 -10 -10 -10 -10 -9 -9 -9 -9 -9 -9 -8 -8 -7
-2 -2 -3 -4 -5 -6 -6 -7 -7 -7 -7 -8 -8 -8 -8 -8 -8 -8 -8 -8 -9 -9 -9 -10 -10 -10 -10 -10 -10 -10 -10 -10 -10 -10 -10 -10 -10 -10 -9 -8 -8 -8 -8
Wind_Speed
2 4 2 3 4 5 4 3 4 7 7 6 6 7 8 7 8 10 11 17 19 21 24 26 27 28 28 30 31 31 31 32 32 33 34 34 33 34 34 34 34 34 33
2 2 3 4 4 6 5 4 6 6 6 6 8 8 8 6 8 9 11 15 19 20 21 24 25 26 27 28 29 31 32 33 33 34 35 35 35 34 36 37 37 36 36
6 4 5 5 4 7 7 5 6 4 6 6 7 8 6 7 8 8 11 12 14 17 18 20 22 23 24 26 27 28 30 32 33 34 35 35 35 35 36 38 38 38 38
9 6 6 6 7 8 6 6 6 6 7 8 8 8 7 8 10 8 9 11 10 11 12 15 18 20 23 24 26 27 28 28 29 31 34 35 36 36 37 39 39 39 40
14 7 6 6 9 5 6 7 6 7 8 8 8 8 9 9 10 11 10 8 10 12 12 15 17 17 20 23 26 28 28 28 28 30 31 32 34 36 38 40 40 41 42
15 10 4 6 7 6 6 7 8 8 7 8 11 10 10 10 8 8 12 12 10 14 15 15 13 14 17 19 21 25 27 26 26 27 29 31 32 32 33 36 38 41 42
12 9 6 6 7 6 7 8 6 8 6 7 6 7 8 8 7 12 13 12 13 11 12 13 12 12 13 19 21 26 30 33 32 30 28 27 29 31 32 32 33 35 39
11 9 7 6 7 6 8 7 6 5 6 7 6 6 5 6 6 11 8 9 11 10 14 13 13 13 13 12 18 26 31 32 32 31 31 30 30 31 32 33 34 34 35
11 9 7 5 7 6 6 6 6 7 6 6 6 5 5 5 11 5 9 10 9 10 10 11 13 11 14 13 14 18 18 21 26 28 29 29 29 29 30 30 31 32 33
9 8 7 6 6 6 6 6 7 5 6 6 5 5 6 9 8 9 6 7 10 11 10 11 11 12 13 13 16 19 16 24 28 29 30 31 31 30 30 31 30 30 31
7 7 7 5 6 5 6 7 6 7 5 5 4 5 7 7 9 12 13 10 8 7 8 9 10 11 11 13 12 17 27 31 33 33 32 33 34 35 34 33 33 33 33
5 6 6 5 5 4 5 6 6 8 6 7 6 6 6 6 9 11 15 15 12 8 8 8 9 10 10 10 18 25 31 34 34 35 35 34 34 35 35 35 36 36 36
4 5 5 5 5 5 5 6 6 8 8 8 7 7 6 7 8 10 13 15 17 12 10 8 8 8 12 8 11 23 28 33 34 35 37 37 36 36 36 37 36 36 36
3 5 6 6 5 5 5 6 6 8 8 8 10 9 7 8 7 8 10 13 18 18 12 10 7 9 8 6 17 28 18 30 33 35 37 37 37 36 36 37 37 37 37
4 6 6 6 6 6 7 7 6 8 9 8 9 10 8 8 7 8 8 8 11 20 20 14 9 9 8 5 19 15 11 28 34 35 35 35 36 36 36 36 36 37 37
5 6 6 6 7 7 8 7 7 8 9 9 9 10 10 9 8 8 8 7 7 12 20 17 12 11 13 18 23 15 13 33 33 33 33 34 35 35 36 36 36 36 36
6 6 6 7 7 8 8 8 8 10 11 10 10 12 13 12 10 8 7 7 7 8 15 18 14 13 13 15 16 10 12 12 15 30 33 34 35 36 36 35 36 36 36
5 6 6 7 8 9 9 9 10 11 10 10 12 13 14 14 12 9 8 8 7 8 12 19 17 14 16 15 15 14 17 18 14 27 32 34 35 36 36 36 37 37 36
6 6 7 7 8 9 9 9 10 10 8 11 13 15 16 15 14 9 9 9 9 13 10 15 18 16 15 15 16 17 16 12 17 23 29 31 32 34 36 36 36 34 31
6 7 7 8 9 10 10 10 9 8 9 10 12 15 16 16 13 11 12 11 11 11 12 14 16 16 16 15 14 13 15 11 14 18 22 25 29 33 34 35 35 33 31
7 8 8 9 9 9 10 11 9 11 9 11 13 15 17 20 23 19 16 11 11 13 15 16 16 17 17 16 15 14 17 17 14 12 13 16 16 15 17 25 29 30 31
8 8 8 9 9 11 19 23 18 10 9 11 16 17 17 17 20 25 28 28 26 20 18 17 17 18 21 20 15 16 17 20 20 9 10 16 14 15 14 12 25 31 29
7 8 9 9 10 12 22 23 22 13 9 11 15 16 16 17 21 13 23 27 23 25 26 21 20 20 20 20 20 20 19 20 20 15 15 18 12 13 13 17 29 31 31
7 8 9 10 10 14 23 23 23 12 9 11 13 15 15 14 18 22 19 18 16 15 22 19 15 17 18 17 18 20 20 20 17 12 12 17 12 12 16 13 26 30 32
8 9 9 10 11 13 21 23 22 9 9 11 13 14 17 17 27 31 22 21 19 15 24 29 29 28 32 32 26 17 16 17 19 12 7 13 15 15 13 13 18 27 26
8 9 10 10 11 10 19 23 23 8 10 11 11 12 21 24 30 32 23 20 18 16 18 19 18 21 19 21 27 17 15 17 18 16 8 10 15 14 12 8 9 8 13
Wind_Direction
12 23 337 345 339 347 340 335 325 323 324 318 319 318 311 300 295 289 283 277 271 264 270 276 276 274 273 273 272 268 263 260 258 256 255 253 252 249 245 243 241 239 237
49 18 3 18 10 357 347 338 335 329 322 325 318 308 310 312 305 303 297 291 283 270 265 276 280 279 277 276 277 277 272 264 258 256 255 255 253 251 248 245 243 241 239
50 46 40 26 359 354 359 8 352 336 329 324 313 307 306 300 290 289 293 292 288 278 266 269 277 280 279 278 277 278 279 277 271 263 257 254 252 251 250 249 246 243 241
57 58 47 23 10 18 17 6 357 352 345 336 329 323 321 312 299 297 297 294 297 292 279 269 266 270 272 276 280 279 277 278 278 275 269 263 257 253 250 249 248 245 242
43 48 44 30 13 19 18 5 358 355 343 337 334 330 325 316 307 309 320 337 339 336 331 323 307 291 277 278 290 295 291 289 287 286 283 278 271 266 260 256 252 249 246
44 35 34 32 18 18 15 10 4 356 345 346 337 329 317 308 311 351 352 344 337 334 334 334 333 333 329 323 318 316 311 308 302 295 291 289 287 283 278 271 264 258 253
49 44 29 27 21 19 25 10 7 349 346 337 336 327 309 327 346 359 337 331 330 331 340 336 332 336 333 330 327 323 321 315 310 306 302 296 293 292 291 286 281 274 265
44 43 34 28 19 23 22 5 11 354 344 348 351 339 332 315 7 329 312 329 320 337 333 330 330 327 324 323 321 321 319 319 317 311 306 304 303 303 300 296 291 286 280
47 38 35 30 20 27 17 2 14 1 347 342 356 351 333 309 318 282 325 308 326 328 319 318 317 318 321 320 318 316 330 343 333 325 319 314 310 308 308 308 307 305 297
63 38 38 38 31 31 21 360 5 350 345 330 334 340 308 309 314 309 295 307 314 311 309 314 322 320 319 319 314 316 337 333 327 322 319 316 312 309 308 310 312 317 320
74 43 37 38 38 29 12 357 348 335 327 317 318 313 307 308 305 307 305 303 296 291 303 317 315 315 316 312 313 316 323 322 320 316 312 310 310 308 308 309 313 313 313
70 46 31 25 30 19 358 343 338 325 315 308 309 301 295 301 306 305 305 307 304 298 302 302 303 304 307 311 314 320 321 317 315 314 312 309 307 307 309 310 309 308 308
55 32 24 12 7 357 347 339 333 315 304 304 303 295 289 288 291 298 302 305 304 302 298 289 289 298 310 306 311 320 317 314 312 312 310 309 307 307 307 307 306 304 304
43 23 15 4 356 349 338 329 316 304 306 303 302 295 293 290 287 297 299 304 306 305 301 296 300 306 302 311 316 315 311 312 311 309 308 308 307 306 306 305 303 302 300
27 13 -0 357 345 333 324 316 302 302 299 297 293 290 291 287 284 285 288 292 300 304 304 307 306 300 312 310 307 307 312 312 308 305 304 303 302 302 302 301 300 298 296
17 354 353 347 332 321 314 311 306 302 302 298 295 296 296 294 290 288 287 289 292 299 299 302 306 314 314 309 307 307 305 304 301 300 299 299 298 297 295 294 294 295 294
5 352 344 330 318 310 310 311 308 308 302 300 304 306 302 301 298 295 297 296 292 293 297 301 304 305 302 302 300 290 293 290 293 297 299 301 300 299 298 297 296 294 293
353 336 325 315 310 311 310 307 305 306 300 310 313 308 306 306 303 302 297 295 296 298 295 296 300 300 297 296 296 296 302 299 296 298 301 302 300 299 299 298 296 294 294
332 320 313 308 305 304 302 299 298 297 310 316 312 309 307 305 300 295 295 295 293 294 287 292 296 298 297 296 296 295 294 294 299 301 302 301 300 300 298 297 297 296 298
315 305 300 297 296 298 299 298 297 310 310 307 308 306 303 299 296 296 296 287 289 292 291 292 295 300 301 296 294 300 302 296 298 302 298 296 298 299 297 297 297 297 296
301 293 294 296 297 301 303 304 312 311 310 311 309 304 299 299 302 302 301 301 302 300 300 298 299 303 305 307 304 302 303 305 296 294 294 293 294 290 292 293 294 293 292
295 297 300 301 304 308 312 313 314 312 310 312 308 303 299 299 303 310 311 307 305 307 309 307 307 306 303 301 300 301 303 301 298 291 284 293 291 289 290 289 292 294 296
307 308 306 307 302 303 313 314 316 317 307 303 302 303 307 312 316 307 303 306 309 307 308 307 303 300 302 305 303 300 298 296 295 300 297 293 288 288 293 296 298 299 298
310 308 305 300 298 305 315 317 317 314 295 295 299 304 308 310 308 306 306 309 307 304 303 304 298 300 302 301 299 301 300 298 292 286 285 291 294 292 295 292 294 292 290
310 304 300 301 302 309 317 317 314 298 295 296 299 305 309 306 306 312 316 311 308 305 311 308 306 307 307 307 307 305 302 300 299 297 283 288 294 294 291 286 282 283 286
302 303 303 303 303 306 316 319 317 305 304 305 304 304 308 310 312 316 316 313 313 311 312 312 310 307 303 300 302 299 298 298 298 299 285 283 292 296 295 269 256 267 284
Height
1503 1502 1502 1502 1501 1500 1499 1497 1495 1493 1491 1489 1487 1485 1483 1481 1480 1478 1476 1474 1472 1470 1468 1467 1464 1462 1460 1458 1457 1455 1454 1452 1451 1451 1451 1451 1451 1452 1452 1452 1452 1453 1453
1501 1501 1501 1500 1499 1498 1496 1495 1493 1491 1489 1487 1484 1482 1479 1477 1475 1474 1471 1469 1466 1465 1463 1461 1459 1457 1455 1453 1450 1448 1447 1445 1444 1443 1442 1442 1442 1442 1443 1443 1444 1444 1444
1498 1498 1498 1497 1497 1496 1495 1493 1491 1488 1486 1484 1481 1478 1476 1473 1471 1468 1466 1463 1461 1460 1458 1456 1454 1452 1449 1447 1444 1442 1440 1438 1437 1435 1434 1433 1432 1432 1433 1434 1434 1435 1435
1496 1495 1495 1494 1494 1493 1492 1490 1488 1485 1482 1479 1476 1473 1471 1469 1466 1464 1461 1459 1457 1455 1453 1451 1449 1447 1444 1442 1439 1436 1433 1431 1428 1426 1425 1424 1423 1422 1422 1422 1422 1423 1424
1494 1494 1493 1492 1491 1490 1489 1486 1484 1481 1477 1474 1471 1469 1467 1464 1462 1460 1457 1454 1451 1449 1447 1446 1444 1442 1439 1437 1434 1430 1427 1424 1421 1418 1416 1414 1413 1412 1411 1411 1410 1410 1411
1494 1493 1492 1491 1489 1487 1485 1483 1480 1477 1475 1471 1468 1465 1462 1460 1459 1456 1452 1450 1447 1445 1443 1441 1438 1435 1432 1430 1427 1424 1420 1417 1414 1411 1408 1405 1403 1401 1400 1399 1398 1398 1398
1493 1492 1491 1489 1487 1484 1482 1480 1477 1475 1472 1469 1465 1460 1458 1458 1456 1453 1451 1447 1445 1442 1439 1436 1433 1430 1426 1423 1420 1417 1413 1409 1407 1404 1401 1398 1395 1392 1389 1387 1385 1384 1384
1492 1490 1488 1486 1484 1482 1480 1477 1475 1473 1471 1468 1464 1459 1455 1452 1451 1449 1446 1444 1441 1437 1434 1431 1428 1424 1421 1417 1413 1410 1406 1401 1397 1395 1392 1389 1386 1383 1379 1377 1375 1373 1372
1491 1489 1487 1484 1482 1480 1478 1476 1473 1471 1469 1467 1466 1464 1459 1452 1446 1442 1440 1437 1435 1431 1428 1425 1422 1419 1415 1410 1407 1403 1399 1394 1389 1386 1383 1379 1377 1374 1370 1367 1364 1361 1359
1489 1486 1484 1482 1480 1478 1476 1474 1472 1470 1468 1465 1463 1462 1460 1455 1447 1436 1433 1432 1429 1425 1422 1419 1416 1412 1408 1404 1400 1396 1391 1385 1381 1377 1374 1370 1367 1364 1361 1358 1354 1350 1346
1486 1484 1482 1480 1478 1476 1474 1472 1470 1468 1466 1463 1460 1457 1453 1450 1445 1438 1426 1421 1420 1419 1416 1413 1408 1404 1400 1397 1393 1388 1382 1377 1373 1370 1366 1362 1358 1355 1352 1348 1344 1340 1336
1484 1483 1481 1479 1476 1474 1472 1470 1468 1465 1463 1460 1456 1453 1449 1445 1440 1435 1426 1416 1411 1409 1407 1404 1401 1397 1394 1390 1386 1381 1375 1370 1366 1362 1358 1354 1350 1346 1342 1338 1334 1331 1328
1482 1480 1478 1476 1474 1472 1469 1467 1465 1462 1459 1456 1452 1448 1444 1441 1437 1432 1425 1415 1406 1399 1397 1395 1393 1390 1387 1383 1378 1373 1367 1363 1358 1353 1349 1346 1342 1337 1333 1329 1325 1323 1320
1480 1478 1476 1473 1471 1469 1466 1464 1461 1458 1455 1451 1447 1443 1439 1435 1432 1428 1423 1415 1402 1391 1387 1385 1384 1382 1379 1375 1370 1365 1360 1355 1350 1345 1340 1336 1331 1327 1322 1318 1315 1312 1310
1477 1475 1472 1470 1468 1466 1463 1460 1457 1454 1450 1446 1442 1438 1433 1429 1425 1421 1417 1413 1406 1391 1378 1376 1374 1373 1370 1366 1362 1358 1352 1346 1342 1337 1332 1327 1322 1317 1313 1309 1306 1303 1300
1474 1471 1469 1467 1465 1463 1460 1457 1453 1448 1444 1440 1436 1432 1427 1422 1418 1414 1410 1406 1401 1394 1379 1371 1368 1364 1360 1357 1353 1349 1344 1339 1334 1329 1324 1319 1315 1310 1305 1301 1297 1293 1290
1471 1468 1466 1464 1462 1459 1456 1451 1447 1442 1438 1434 1430 1425 1420 1415 1410 1406 1402 1397 1393 1388 1378 1366 1362 1358 1352 1347 1342 1339 1335 1330 1324 1320 1315 1310 1305 1300 1295 1291 1286 1282 1279
1468 1466 1463 1461 1458 1454 1450 1445 1440 1436 1432 1427 1422 1417 1412 1407 1403 1399 1394 1390 1385 1380 1374 1363 1355 1350 1345 1340 1334 1328 1324 1320 1316 1311 1306 1300 1295 1289 1284 1280 1276 1272 1268
1465 1462 1459 1456 1453 1449 1444 1439 1434 1430 1426 1421 1416 1410 1405 1400 1395 1392 1387 1382 1377 1372 1367 1359 1349 1343 1337 1332 1325 1318 1314 1309 1305 1301 1295 1289 1284 1279 1273 1269 1265 1261 1256
1461 1458 1455 1452 1448 1443 1438 1434 1429 1424 1419 1414 1408 1403 1398 1394 1390 1385 1380 1375 1370 1365 1359 1352 1343 1336 1330 1323 1317 1310 1302 1297 1292 1288 1283 1278 1273 1268 1263 1258 1254 1250 1247
1458 1455 1451 1447 1443 1438 1434 1430 1424 1418 1412 1406 1400 1396 1392 1389 1385 1381 1376 1370 1365 1358 1351 1343 1335 1328 1322 1316 1310 1303 1295 1286 1279 1277 1271 1265 1262 1255 1250 1247 1243 1239 1237
1454 1451 1447 1442 1438 1434 1429 1424 1419 1412 1406 1400 1393 1389 1386 1383 1379 1374 1370 1365 1359 1352 1344 1338 1329 1323 1316 1310 1302 1295 1288 1279 1267 1266 1263 1254 1252 1245 1241 1237 1233 1230 1226
1451 1447 1442 1438 1432 1428 1423 1418 1413 1407 1400 1394 1389 1384 1381 1377 1373 1367 1361 1355 1350 1344 1340 1334 1325 1316 1308 1301 1295 1286 1279 1271 1262 1257 1254 1243 1241 1236 1232 1228 1223 1219 1215
1446 1442 1437 1431 1426 1421 1417 1412 1407 1401 1395 1390 1385 1381 1375 1370 1365 1360 1353 1346 1339 1335 1331 1324 1316 1308 1301 1294 1288 1280 1272 1262 1253 1249 1247 1237 1231 1226 1222 1217 1213 1208 1204
1441 1437 1432 1426 1421 1415 1411 1407 1402 1395 1390 1384 1380 1376 1371 1364 1359 1354 1346 1338 1330 1324 1319 1313 1306 1300 1293 1286 1280 1272 1263 1255 1244 1239 1238 1232 1222 1216 1210 1205 1201 1198 1195
1437 1432 1426 1421 1416 1411 1406 1402 1398 1392 1385 1379 1374 1369 1365 1359 1353 1346 1339 1330 1322 1314 1308 1301 1295 1288 1282 1276 1271 1266 1258 1249 1239 1230 1227 1223 1214 1208 1199 1194 1192 1189 1186